Location: Campestrin
(46.4667°N, 11.7167°E)
Time: 15:54:06
(UTC+00:00)

Cosmos 1818 - Pass Details

Date: 18 April 2021
Orbit: 772 x 802 km, 65.0° (Epoch: 06 May)

Event Time Altitude Azimuth Distance (km) Brightness Sun altitude
Rises 19:04:11 0° 194° (SSW) 3,266 6.6 -10.2°
Reaches altitude 10° 19:06:40 10° 188° (S) 2,347 5.8 -10.6°
Maximum altitude 19:11:46 44° 118° (ESE) 1,084 3.8 -11.3°
Drops below altitude 10° 19:16:56 10° 47° (NE) 2,378 5.9 -12.1°
Sets 19:19:28 0° 41° (NE) 3,315 6.7 -12.5°
